Location: Henry Coe State Park
(37.1875°N, 121.5503°W)
Time: 07:10:21
(UTC-07:00)

Daily predictions for brighter satellites

Satellite Brightness Start Highest point End
(mag) Time Altitude Azimuth Time Altitude Azimuth Time Altitude Azimuth
Meteor 2-15 Rocket 4.5 19:35:22 10° N 19:41:33 82° E 19:47:40 10° S
Cosmos 1437 Rocket 2.8 19:43:21 10° S 19:47:16 59° E 19:51:16 10° NNE
Cosmos 2150 Rocket 3.9 19:42:16 10° S 19:47:22 71° ESE 19:52:30 10° NNE
Delta 2 Rocket 3.7 19:43:41 10° W 19:48:36 71° S 19:52:54 10° ESE
USA 215 4.1 19:45:04 10° ENE 19:50:37 29° SE 19:56:07 10° S
SJ-6B 2.7 19:48:21 10° SSE 19:52:02 64° ENE 19:55:44 10° N
ALOS 2.4 19:48:43 10° SSE 19:53:15 54° ENE 19:57:49 10° N
Meteor 1-22 Rocket 4.5 19:48:22 10° SSE 19:53:57 53° E 19:59:45 10° NNE
Cosmos 990 Rocket 4.0 19:49:23 10° S 19:54:32 62° ESE 19:59:43 10° NNE
Cosmos 1898 Rocket 3.9 19:51:49 10° SSW 19:57:07 71° WNW 20:02:24 10° NNE
Cosmos 1605 Rocket 4.5 19:52:26 10° SSE 19:58:07 38° E 20:03:54 10° NNE
Helios 1B rocket 3.8 19:56:27 10° NE 19:59:18 18° E 20:02:07 10° SE
Yuri Rocket 4.4 19:55:55 10° WSW 19:59:28 25° S 20:02:53 10° SE
BREEZE-M DEB (TANK) 3.7 19:57:36 10° S 20:00:01 22° ESE 20:04:49 10° ENE
Helios 1A 4.4 20:00:33 10° ESE 20:03:32 19° ENE 20:06:32 10° NNE
Cosmos 1844 Rocket 3.4 19:58:25 10° SW 20:03:59 60° WNW 20:09:35 10° NNE
Cosmos 1378 3.1 20:00:42 10° N 20:04:27 68° E 20:08:10 10° SSE
Cosmos 1125 Rocket 4.5 20:01:43 10° SSE 20:05:50 24° E 20:09:59 10° NE
Lacrosse 4 Rocket 2.6 20:01:58 10° SW 20:05:52 44° WNW 20:09:46 10° NNE
Cosmos 2344 3.7 20:02:27 10° SSW 20:10:09 87° ESE 20:18:32 10° NNE
HJ-1C 3.3 20:06:55 10° SSE 20:10:17 73° ENE 20:13:42 10° N
Cosmos 2123 Rocket 4.1 20:07:20 10° N 20:13:33 57° E 20:19:42 10° SSE
Cosmos 1758 4.2 20:10:18 10° SSE 20:13:38 27° E 20:17:00 10° NNE
Cosmos 2278 Rocket 2.1 20:10:30 10° SSW 20:16:08 70° ESE 20:21:47 10° NNE
Cosmos 1833 Rocket 4.2 20:12:31 10° NNE 20:16:20 18° NE 20:18:38 15° E
Geosat 4.0 20:11:44 10° NNE 20:16:41 57° ESE 20:21:36 10° SSW
Lacrosse 5 2.0 20:12:56 10° SW 20:18:00 81° NW 20:23:06 10° NE
FREGAT/IRIS 4.2 20:15:18 10° S 20:18:11 38° W 20:21:06 10° NNW
H-2A R/B 2.7 20:16:20 10° SSE 20:20:09 67° ENE 20:24:04 10° N
SL-27 R/B 2.5 20:17:26 10° N 20:20:58 61° ENE 20:24:31 10° SSE
FENGYUN 3A 3.7 20:15:44 10° SSE 20:21:08 84° WSW 20:26:35 10° NNW
FengYun 1-2 T 4.3 20:17:02 10° SSE 20:22:36 88° WSW 20:28:14 10° NNW
Cosmos 1953 3.0 20:19:25 10° SSE 20:23:03 32° E 20:26:42 10° NNE
Meteor 1-4 Rocket 3.3 20:20:12 10° SSE 20:23:13 29° E 20:26:16 10° NNE
Resurs 1-3 3.5 20:22:27 10° SSE 20:26:48 67° ENE 20:31:09 10° N
Meteor 1-29 3.9 20:23:57 10° NE 20:26:54 26° E 20:27:30 24° ESE
Cosmos 1544 3.3 20:23:57 10° SSE 20:27:26 46° E 20:30:57 10° NNE
Cosmos 1937 Rocket 4.5 20:23:15 10° SW 20:28:20 51° WNW 20:33:29 10° N
Cosmos 2297 4.1 20:24:33 10° S 20:29:48 39° ESE 20:35:06 10° NE
SeaSat 1 3.0 20:28:37 10° SSE 20:33:27 58° WSW 20:38:20 10° NNW
Cosmos 1818 4.3 20:28:50 10° NNW 20:33:47 34° NE 20:36:09 24° E
ATLAS 5 CENTAUR R/B 2.8 20:32:02 10° SSE 20:35:09 23° ESE 20:35:09 23° ESE
Meteor 1-24 Rocket 4.1 20:33:12 10° NNW 20:38:40 68° W 20:44:18 10° S
Tiangong 1 0.7 20:39:47 10° WNW 20:42:44 81° NNE 20:43:07 62° E
Cosmos 1766 4.4 20:39:31 10° SSW 20:43:14 45° W 20:46:59 10° N
Lacrosse 5 rocket 3.7 20:45:39 10° NNE 20:45:54 10° NNE 20:46:10 10° NNE
Cosmos 1408 Rocket 4.2 20:42:56 10° NNE 20:47:03 35° ENE 20:47:32 34° E
Cosmos 2082 Rocket 2.9 20:43:08 10° N 20:48:22 36° ENE 20:49:57 30° E
Abrixas 4.2 20:47:33 10° NNW 20:49:38 21° NNE 20:49:38 21° NNE
Cosmos 2098 Rocket 4.3 20:44:40 10° S 20:51:35 74° E 20:59:10 10° N
USA 186 2.8 20:53:13 25° NNW 20:53:13 25° NNW 20:54:19 10° NNW
Cosmos 1447 Rocket 4.4 20:46:30 10° N 20:52:36 65° E 20:57:50 14° SSE
Cosmos 468 4.4 20:49:27 10° NNW 20:54:40 65° ENE 20:57:06 31° SE
Okean 3 Rocket 3.6 20:50:24 10° N 20:54:48 79° W 20:59:00 11° S
RESURS DK-1 2.9 20:50:59 10° NNW 20:55:02 56° WSW 20:57:48 19° S
Cosmos 1459 Rocket 4.3 20:49:31 10° SSE 20:55:24 43° E 21:01:13 10° NNE
Cosmos 2173 Rocket 4.2 20:54:35 18° SSE 20:58:49 45° E 21:04:41 10° NNE
GPS 2-05 Rocket1 4.0 20:57:08 10° SW 20:59:44 32° S 20:59:44 32° S
BREEZE-M DEB (TANK) 4.1 20:59:09 10° W 21:02:04 46° NNW 21:09:50 10° NE
SJ-11-01 4.4 21:03:05 47° ESE 21:03:56 55° ENE 21:08:34 10° N
Cosmos 1867 3.4 21:01:33 10° SSW 21:06:59 81° ESE 21:12:29 10° NNE
Cosmos 372 Rocket 3.8 21:07:09 10° SSW 21:12:14 80° ESE 21:17:23 10° NNE
Cosmos 1674 3.2 21:10:02 10° N 21:12:51 47° NNE 21:12:51 47° NNE
GP-B 3.1 21:13:13 29° S 21:15:28 78° W 21:19:56 10° N
CZ-3B DEB 4.3 21:08:56 10° WSW 21:18:08 34° NW 21:22:50 10° NNE
Resurs 01 Rocket 3.7 21:14:33 10° SSW 21:18:14 26° W 21:21:57 10° NW
Meteor 1-21 Rocket 4.4 21:16:39 10° NNW 21:22:30 79° W 21:25:52 27° S
Cosmos 1076 Rocket 4.1 21:20:46 10° NNW 21:24:54 54° W 21:26:09 39° SSW
Cosmos 158 Rocket 3.8 21:21:22 10° NNW 21:26:30 72° ENE 21:26:34 72° ENE
Cosmos 2016 Rocket 3.9 21:30:07 59° E 21:30:07 59° E 21:36:11 10° NNE
Cosmos 1766 Rocket 3.7 21:25:46 10° NNW 21:30:13 70° W 21:30:29 68° WSW
Cosmos 1470 4.1 21:33:53 33° N 21:33:53 33° N 21:36:13 10° N
H-2A R/B 4.2 21:35:56 14° NNE 21:35:56 14° NNE 21:37:03 10° NNE
USA 215 3.5 21:27:22 10° NE 21:33:53 69° NW 21:40:20 10° WSW
Helios 1B rocket 4.2 21:30:59 10° N 21:34:38 31° WNW 21:38:16 10° SW
Cosmos 1340 Rocket 4.4 21:31:24 10° N 21:33:27 29° N 21:33:27 29° N
Meteor 2-17 Rocket 4.3 21:38:47 67° ENE 21:38:47 67° ENE 21:44:35 10° NNE
Envisat 3.4 21:37:39 46° SSW 21:38:54 60° W 21:43:56 10° NNW
Cosmos 2100 Rocket 4.2 21:37:10 10° SSW 21:43:27 71° W 21:49:48 10° N
Cosmos-2242 4.0 21:46:50 44° WNW 21:46:50 44° WNW 21:50:45 10° N
Cosmos 1833 Rocket 3.0 21:55:09 10° NNW 22:00:23 61° W 22:00:23 61° W
Lacrosse 5 4.4 21:58:18 10° WNW 22:01:41 18° NNW 22:05:05 10° NNE
ERS-1 Rocket 3.7 22:03:28 49° NW 22:03:28 49° NW 22:07:16 10° NNW
Cosmos 1802 Rocket 4.3 22:00:27 43° SW 22:02:19 62° W 22:08:26 10° N
SPOT 5 4.4 22:05:38 33° N 22:05:38 33° N 22:08:37 10° N
H-2A R/B (2) 4.0 22:00:13 10° WSW 22:02:08 23° SW 22:02:08 23° SW
USA 267 4.0 22:04:45 39° NNE 22:04:45 39° NNE 22:10:40 10° NNW
ATLAS 5 CENTAUR R/B 4.1 22:15:50 10° WSW 22:16:59 17° WSW 22:16:59 17° WSW
Lacrosse 5 rocket 4.4 22:22:08 10° NW 22:22:18 11° NW 22:22:18 11° NW
Cosmos 2082 Rocket 3.8 22:27:27 10° NW 22:31:51 28° W 22:31:51 28° W
